loading
|

OBJECT AN, 59134

Orbit data source: Space-Track

OBJECT AN, 59134 is a satellite in SSO that was launched on Mon, 04 Mar 2024 UTC via an FALCON 9 launch vehicle from the Air Force Western Test Range (AFWTR). Unknown objects in Earth's orbit typically refer to objects detected orbiting the Earth but have not yet been identified or cataloged. These objects could be anything from previously untracked satellites, spent rocket stages, debris from satellite collisions, or even natural meteoroids temporarily captured by Earth's gravity.

Loading next visibility...
Loading greatness...
OBJECT AN details
Identifier
59134, 2024-043AN
Orbit
SSO
Last TLE update15 hours ago
Origin
Flag of TBDARC (TBD)
ManufacturerARC
Mission statusOperational
MissionCommercial Weather
Bus & MotorCUBESAT 1.5U, Unknown motor
Mass1 kg wet, 1 kg dry
Launch date (UTC)
2024-03-04 (7 months ago)
Launch vehicle
FALCON 9
Launch site
Air Force Western Test Range (AFWTR)
Object typeUnknown
Radar Cross SectionLarge (>1 m²)

Expand to show TLE details & history

TLE from 15 hours ago
0 OBJECT AN
1 59134U 24043AN  24261.31138679  .00039359  00000-0  17099-2 0  9995
2 59134  97.4845  24.4893 0011168 322.4524  37.5931 15.22130019 29812
Epoch: 2024-09-17T07:28Z
Definitive object data (Epoch: 2024-09-17T07:28:23.818Z)
Latitude-0.00005°
Longitude-84.3378°
Altitude496.424 km
Speed7.62 km/s
True Right ascension01h 37m 57s
True Declination0° 00' 00"
Sunlit
Object was in full shadow at TLE epoch
Predictive object data (real-time)
Latitude-77.68993°
Longitude59.51896°
Altitude523.185 km
Speed7.603 km/s
Apparent Right ascension04h 47m 23s
Apparent Declination-67° 19' 56"
Sunlit
Object is in daylight
Predictive observer data (real-time)
Local Sidereal Time15:37:43
Azimuth193.74° SSW
Elevation-60.943°
Doppler factor1
Orbital elements
Apogee504.061 km
Perigee488.706 km
Semi-major axis6,874.52 km
Eccentricity0.0011168
Inclination97.4845°
RAAN24.4893°
Arg. of periapsis322.4524°
True anomaly37.67126°
Mean anomaly37.5931°
Eccentric anomaly37.63217°
Mean motion3.80785 °/min
BSTAR0.0017099
Period94.54 mins
No data available

OBJECT AN Visibility forecast

Observer location: 39.9160978°, -105.1181434

OBJECT AN is not visible in the next 10 days
Span
Click to sort rows by Start time (UTC) header in descending order
Start Az.
Max El. time (UTC)
Max El. Az.
Max El.
End time (UTC)
End Az.